QPF
0.00 0.00 0.00 0.00 0.00 0.00 0.00 0.00 0.00 0.00 0.00 0.00 0.00 0.00 0.00 0.00 0.00 0.00 0.00 0.00 0.00 0.00 0.00 0.00 0.00 0.00 0.00 0.00 0.00 0.00 0.00 0.00 0.00 0.00 0.00 0.00 0.00 0.00 0.00 0.00 0.00 0.00 0.00 0.00
0.00 0.00 0.00 0.00 0.00 0.00 0.00 0.00 0.00 0.00 0.00 0.00 0.00 0.00 0.00 0.00 0.00 0.00 0.00 0.00 0.00 0.00 0.00 0.00 0.00 0.00 0.00 0.00 0.00 0.00 0.00 0.00 0.00 0.00 0.00 0.00 0.00 0.00 0.00 0.00 0.00 0.00 0.00 0.00
0.00 0.00 0.00 0.00 0.00 0.00 0.00 0.00 0.00 0.00 0.00 0.00 0.00 0.00 0.00 0.00 0.00 0.00 0.00 0.00 0.00 0.00 0.00 0.00 0.00 0.00 0.00 0.00 0.00 0.00 0.00 0.00 0.00 0.00 0.00 0.00 0.00 0.00 0.00 0.00 0.00 0.00 0.00 0.00
0.00 0.00 0.00 0.00 0.00 0.00 0.00 0.00 0.00 0.00 0.00 0.00 0.00 0.00 0.00 0.00 0.00 0.00 0.00 0.00 0.00 0.00 0.00 0.00 0.00 0.00 0.00 0.00 0.00 0.00 0.00 0.00 0.00 0.00 0.00 0.00 0.00 0.00 0.00 0.00 0.00 0.00 0.00 0.00
0.00 0.00 0.00 0.00 0.00 0.00 0.00 0.00 0.00 0.00 0.00 0.00 0.00 0.00 0.00 0.00 0.00 0.00 0.00 0.00 0.00 0.00 0.00 0.00 0.00 0.00 0.00 0.00 0.00 0.00 0.00 0.00 0.00 0.00 0.00 0.00 0.00 0.00 0.00 0.00 0.00 0.00 0.00 0.00
0.00 0.00 0.00 0.00 0.00 0.00 0.00 0.00 0.00 0.00 0.00 0.00 0.00 0.00 0.00 0.00 0.00 0.00 0.00 0.00 0.00 0.00 0.00 0.00 0.00 0.00 0.00 0.00 0.00 0.00 0.00 0.00 0.00 0.00 0.00 0.00 0.00 0.00 0.00 0.00 0.00 0.00 0.00 0.00
0.00 0.00 0.00 0.00 0.00 0.00 0.00 0.00 0.00 0.00 0.00 0.00 0.00 0.00 0.00 0.00 0.00 0.00 0.00 0.00 0.00 0.00 0.00 0.00 0.00 0.00 0.00 0.00 0.00 0.00 0.00 0.00 0.00 0.00 0.00 0.00 0.00 0.00 0.00 0.00 0.00 0.00 0.00 0.00
0.00 0.00 0.00 0.00 0.00 0.00 0.00 0.00 0.00 0.00 0.00 0.00 0.00 0.00 0.00 0.00 0.00 0.00 0.00 0.00 0.00 0.00 0.00 0.00 0.00 0.00 0.00 0.00 0.00 0.00 0.00 0.00 0.00 0.00 0.00 0.00 0.00 0.00 0.00 0.00 0.00 0.00 0.00 0.00
0.00 0.00 0.00 0.00 0.00 0.00 0.00 0.00 0.00 0.01 0.01 0.00 0.00 0.00 0.00 0.00 0.00 0.00 0.00 0.00 0.00 0.00 0.00 0.00 0.00 0.00 0.00 0.00 0.00 0.00 0.00 0.00 0.00 0.00 0.00 0.00 0.00 0.00 0.00 0.00 0.00 0.00 0.00 0.00
0.00 0.00 0.00 0.00 0.00 0.00 0.00 0.00 0.00 0.01 0.04 0.01 0.00 0.00 0.00 0.00 0.00 0.00 0.00 0.00 0.00 0.00 0.00 0.00 0.00 0.00 0.00 0.00 0.00 0.00 0.00 0.00 0.00 0.00 0.00 0.00 0.00 0.00 0.00 0.00 0.00 0.00 0.00 0.00
0.01 0.01 0.00 0.00 0.00 0.00 0.00 0.00 0.00 0.01 0.02 0.02 0.01 0.00 0.00 0.00 0.00 0.00 0.00 0.00 0.00 0.00 0.00 0.00 0.00 0.00 0.00 0.00 0.00 0.00 0.00 0.00 0.00 0.00 0.00 0.00 0.00 0.00 0.00 0.00 0.00 0.00 0.00 0.00
0.01 0.03 0.02 0.00 0.00 0.00 0.00 0.00 0.00 0.02 0.02 0.03 0.04 0.02 0.00 0.00 0.00 0.00 0.00 0.00 0.00 0.00 0.00 0.00 0.00 0.00 0.00 0.00 0.00 0.00 0.00 0.00 0.00 0.00 0.00 0.00 0.00 0.00 0.00 0.00 0.00 0.00 0.00 0.00
0.02 0.03 0.04 0.01 0.00 0.00 0.00 0.00 0.00 0.02 0.03 0.04 0.05 0.03 0.00 0.00 0.00 0.00 0.00 0.00 0.00 0.00 0.00 0.00 0.00 0.00 0.00 0.00 0.00 0.00 0.00 0.00 0.00 0.00 0.00 0.00 0.00 0.00 0.00 0.00 0.00 0.00 0.00 0.00
0.02 0.03 0.03 0.01 0.00 0.01 0.02 0.02 0.02 0.04 0.09 0.08 0.04 0.03 0.01 0.01 0.01 0.01 0.01 0.00 0.00 0.00 0.00 0.00 0.00 0.00 0.00 0.00 0.00 0.00 0.00 0.00 0.00 0.00 0.00 0.00 0.00 0.00 0.00 0.00 0.00 0.00 0.00 0.00
0.01 0.02 0.01 0.01 0.00 0.01 0.02 0.02 0.02 0.03 0.06 0.09 0.04 0.02 0.01 0.00 0.01 0.01 0.00 0.00 0.00 0.00 0.00 0.00 0.00 0.00 0.00 0.00 0.00 0.00 0.00 0.00 0.00 0.00 0.00 0.00 0.00 0.00 0.00 0.00 0.00 0.00 0.00 0.00
0.01 0.01 0.00 0.00 0.00 0.00 0.00 0.00 0.00 0.00 0.00 0.00 0.00 0.00 0.00 0.00 0.00 0.00 0.00 0.00 0.00 0.00 0.00 0.00 0.00 0.00 0.00 0.00 0.00 0.00 0.00 0.00 0.00 0.00 0.00 0.00 0.00 0.00 0.00 0.00 0.00 0.00 0.00 0.00
0.00 0.01 0.01 0.00 0.00 0.00 0.00 0.00 0.00 0.00 0.00 0.00 0.00 0.00 0.00 0.00 0.00 0.00 0.00 0.00 0.00 0.00 0.00 0.00 0.00 0.00 0.00 0.00 0.00 0.00 0.00 0.00 0.00 0.00 0.00 0.00 0.00 0.00 0.00 0.00 0.00 0.00 0.00 0.00
0.00 0.00 0.02 0.01 0.00 0.00 0.00 0.00 0.00 0.00 0.00 0.00 0.00 0.00 0.00 0.00 0.00 0.00 0.00 0.00 0.00 0.00 0.00 0.00 0.00 0.00 0.00 0.00 0.00 0.00 0.00 0.00 0.00 0.00 0.00 0.00 0.00 0.00 0.00 0.00 0.00 0.00 0.00 0.00
0.00 0.00 0.02 0.02 0.01 0.00 0.00 0.00 0.00 0.00 0.00 0.00 0.00 0.00 0.00 0.00 0.00 0.00 0.00 0.00 0.00 0.00 0.00 0.00 0.00 0.00 0.00 0.00 0.00 0.00 0.00 0.00 0.00 0.00 0.00 0.00 0.00 0.00 0.00 0.00 0.00 0.00 0.00 0.00
0.00 0.00 0.01 0.01 0.01 0.00 0.00 0.00 0.00 0.00 0.00 0.00 0.00 0.00 0.00 0.00 0.00 0.00 0.00 0.00 0.00 0.00 0.00 0.00 0.00 0.00 0.00 0.00 0.00 0.00 0.00 0.00 0.00 0.00 0.00 0.00 0.00 0.00 0.00 0.00 0.00 0.00 0.00 0.00
0.00 0.00 0.01 0.00 0.01 0.00 0.00 0.00 0.00 0.00 0.00 0.00 0.00 0.00 0.00 0.00 0.00 0.00 0.00 0.00 0.00 0.00 0.00 0.00 0.00 0.00 0.00 0.00 0.00 0.00 0.00 0.00 0.00 0.00 0.00 0.00 0.00 0.00 0.00 0.00 0.00 0.00 0.00 0.00
0.00 0.00 0.00 0.00 0.00 0.00 0.00 0.00 0.00 0.00 0.00 0.00 0.00 0.00 0.00 0.00 0.00 0.00 0.00 0.00 0.00 0.00 0.00 0.00 0.00 0.00 0.00 0.00 0.00 0.00 0.00 0.00 0.00 0.00 0.00 0.00 0.00 0.00 0.00 0.00 0.00 0.00 0.00 0.00
0.00 0.00 0.00 0.00 0.00 0.00 0.00 0.00 0.00 0.00 0.00 0.00 0.00 0.00 0.00 0.00 0.00 0.00 0.00 0.00 0.00 0.00 0.00 0.00 0.00 0.00 0.00 0.00 0.00 0.00 0.00 0.00 0.00 0.00 0.00 0.00 0.00 0.00 0.00 0.00 0.00 0.00 0.00 0.01
0.00 0.00 0.00 0.00 0.00 0.00 0.00 0.00 0.00 0.00 0.00 0.00 0.00 0.00 0.00 0.00 0.00 0.00 0.00 0.00 0.00 0.00 0.00 0.00 0.00 0.00 0.00 0.00 0.00 0.00 0.00 0.00 0.00 0.00 0.00 0.00 0.00 0.00 0.00 0.00 0.00 0.00 0.01 0.01
0.00 0.00 0.00 0.00 0.00 0.00 0.00 0.00 0.00 0.00 0.00 0.00 0.00 0.00 0.00 0.00 0.00 0.00 0.00 0.00 0.00 0.00 0.00 0.00 0.00 0.00 0.00 0.00 0.00 0.00 0.00 0.00 0.00 0.00 0.00 0.00 0.00 0.00 0.00 0.00 0.00 0.00 0.01 0.01
0.00 0.00 0.00 0.00 0.00 0.00 0.00 0.00 0.00 0.00 0.00 0.00 0.00 0.00 0.00 0.00 0.00 0.00 0.00 0.00 0.00 0.00 0.00 0.00 0.00 0.00 0.00 0.00 0.00 0.00 0.00 0.00 0.00 0.00 0.00 0.00 0.00 0.00 0.00 0.00 0.00 0.00 0.01 0.01
MSLP
1016.15 1016.25 1016.29 1016.32 1016.36 1016.41 1016.48 1016.52 1016.48 1016.33 1016.04 1015.59 1015.03 1014.41 1013.82 1013.37 1013.13 1013.14 1013.42 1013.92 1014.56 1015.23 1015.81 1016.21 1016.34 1016.21 1015.83 1015.28 1014.65 1014.03 1013.53 1013.18 1013.01 1013.01 1013.13 1013.34 1013.58 1013.82 1014.04 1014.25 1014.46 1014.72 1015.03 1015.42
1016.15 1016.14 1016.10 1016.09 1016.11 1016.20 1016.31 1016.41 1016.43 1016.33 1016.07 1015.64 1015.09 1014.48 1013.92 1013.51 1013.35 1013.47 1013.89 1014.54 1015.34 1016.15 1016.86 1017.34 1017.54 1017.43 1017.06 1016.50 1015.85 1015.22 1014.69 1014.31 1014.11 1014.06 1014.13 1014.26 1014.41 1014.53 1014.63 1014.72 1014.81 1014.96 1015.19 1015.51
1016.02 1015.92 1015.83 1015.79 1015.83 1015.96 1016.14 1016.31 1016.41 1016.37 1016.14 1015.74 1015.20 1014.61 1014.07 1013.71 1013.60 1013.81 1014.33 1015.10 1016.01 1016.94 1017.74 1018.30 1018.56 1018.50 1018.17 1017.64 1017.01 1016.39 1015.87 1015.51 1015.30 1015.23 1015.26 1015.33 1015.39 1015.41 1015.40 1015.36 1015.34 1015.37 1015.49 1015.72
1015.78 1015.63 1015.51 1015.48 1015.57 1015.77 1016.03 1016.29 1016.46 1016.48 1016.30 1015.92 1015.41 1014.83 1014.31 1013.98 1013.92 1014.18 1014.76 1015.60 1016.58 1017.58 1018.44 1019.06 1019.37 1019.37 1019.09 1018.61 1018.04 1017.48 1017.01 1016.68 1016.49 1016.43 1016.43 1016.45 1016.45 1016.39 1016.27 1016.12 1015.99 1015.91 1015.91 1016.03
1015.48 1015.30 1015.20 1015.22 1015.38 1015.66 1016.01 1016.35 1016.60 1016.67 1016.54 1016.19 1015.70 1015.14 1014.64 1014.33 1014.30 1014.59 1015.20 1016.06 1017.07 1018.08 1018.97 1019.63 1019.98 1020.03 1019.81 1019.40 1018.91 1018.42 1018.02 1017.75 1017.61 1017.56 1017.56 1017.56 1017.51 1017.38 1017.19 1016.95 1016.72 1016.53 1016.43 1016.43
1015.13 1014.99 1014.93 1015.03 1015.27 1015.64 1016.07 1016.49 1016.80 1016.92 1016.82 1016.51 1016.04 1015.51 1015.04 1014.75 1014.74 1015.04 1015.64 1016.49 1017.49 1018.49 1019.37 1020.02 1020.40 1020.49 1020.34 1020.01 1019.61 1019.21 1018.89 1018.69 1018.60 1018.58 1018.60 1018.58 1018.51 1018.35 1018.10 1017.80 1017.49 1017.22 1017.01 1016.90
1014.80 1014.71 1014.74 1014.91 1015.24 1015.69 1016.19 1016.65 1017.00 1017.15 1017.08 1016.81 1016.37 1015.89 1015.46 1015.20 1015.21 1015.51 1016.09 1016.91 1017.86 1018.81 1019.65 1020.29 1020.67 1020.79 1020.70 1020.45 1020.14 1019.84 1019.61 1019.49 1019.45 1019.47 1019.51 1019.50 1019.42 1019.24 1018.97 1018.63 1018.27 1017.92 1017.63 1017.42
1014.51 1014.50 1014.62 1014.88 1015.28 1015.77 1016.30 1016.78 1017.13 1017.29 1017.24 1017.00 1016.62 1016.19 1015.82 1015.62 1015.65 1015.96 1016.53 1017.30 1018.18 1019.06 1019.84 1020.44 1020.81 1020.96 1020.92 1020.76 1020.54 1020.33 1020.20 1020.14 1020.17 1020.23 1020.29 1020.30 1020.22 1020.04 1019.76 1019.40 1019.01 1018.62 1018.27 1017.97
1014.31 1014.40 1014.60 1014.93 1015.36 1015.86 1016.38 1016.83 1017.14 1017.29 1017.24 1017.03 1016.70 1016.35 1016.07 1015.94 1016.03 1016.35 1016.91 1017.63 1018.44 1019.24 1019.95 1020.50 1020.86 1021.02 1021.04 1020.95 1020.82 1020.71 1020.66 1020.68 1020.76 1020.86 1020.94 1020.97 1020.90 1020.73 1020.45 1020.09 1019.68 1019.26 1018.87 1018.51
1014.25 1014.43 1014.70 1015.06 1015.49 1015.96 1016.41 1016.78 1017.03 1017.12 1017.06 1016.87 1016.61 1016.35 1016.17 1016.13 1016.29 1016.65 1017.20 1017.88 1018.62 1019.35 1019.98 1020.48 1020.82 1021.00 1021.06 1021.05 1021.01 1020.99 1021.02 1021.11 1021.24 1021.37 1021.47 1021.50 1021.45 1021.28 1021.01 1020.65 1020.25 1019.81 1019.39 1018.99
1014.39 1014.64 1014.95 1015.32 1015.71 1016.09 1016.43 1016.68 1016.82 1016.84 1016.75 1016.57 1016.37 1016.21 1016.13 1016.20 1016.44 1016.85 1017.40 1018.04 1018.72 1019.37 1019.93 1020.38 1020.70 1020.90 1021.01 1021.07 1021.11 1021.18 1021.29 1021.44 1021.60 1021.75 1021.86 1021.89 1021.83 1021.67 1021.40 1021.05 1020.65 1020.22 1019.78 1019.35
1014.75 1015.06 1015.39 1015.73 1016.04 1016.31 1016.50 1016.61 1016.62 1016.54 1016.40 1016.23 1016.09 1016.01 1016.03 1016.20 1016.52 1016.97 1017.52 1018.13 1018.74 1019.32 1019.81 1020.21 1020.51 1020.73 1020.88 1021.01 1021.14 1021.29 1021.46 1021.65 1021.84 1022.00 1022.10 1022.12 1022.05 1021.88 1021.61 1021.27 1020.87 1020.44 1019.99 1019.54
1015.37 1015.71 1016.03 1016.31 1016.53 1016.66 1016.71 1016.65 1016.53 1016.35 1016.15 1015.97 1015.86 1015.85 1015.97 1016.22 1016.59 1017.07 1017.61 1018.17 1018.72 1019.22 1019.64 1019.99 1020.28 1020.50 1020.70 1020.90 1021.10 1021.31 1021.54 1021.76 1021.96 1022.11 1022.19 1022.19 1022.09 1021.91 1021.64 1021.29 1020.90 1020.47 1020.01 1019.55
1016.22 1016.57 1016.87 1017.09 1017.20 1017.20 1017.09 1016.89 1016.63 1016.35 1016.10 1015.91 1015.82 1015.86 1016.03 1016.33 1016.73 1017.20 1017.71 1018.21 1018.68 1019.09 1019.45 1019.75 1020.01 1020.25 1020.48 1020.73 1020.98 1021.25 1021.52 1021.76 1021.96 1022.09 1022.15 1022.11 1021.99 1021.78 1021.50 1021.15 1020.76 1020.33 1019.87 1019.38
1017.25 1017.60 1017.86 1018.00 1018.02 1017.90 1017.66 1017.34 1016.97 1016.61 1016.31 1016.10 1016.02 1016.08 1016.27 1016.58 1016.98 1017.42 1017.86 1018.28 1018.66 1018.98 1019.26 1019.51 1019.74 1019.98 1020.24 1020.53 1020.83 1021.14 1021.44 1021.69 1021.88 1021.99 1022.01 1021.94 1021.79 1021.55 1021.25 1020.90 1020.51 1020.07 1019.60 1019.10
1018.39 1018.71 1018.92 1018.99 1018.92 1018.71 1018.38 1017.97 1017.53 1017.11 1016.77 1016.55 1016.46 1016.52 1016.71 1017.00 1017.35 1017.72 1018.08 1018.40 1018.67 1018.90 1019.10 1019.30 1019.50 1019.74 1020.02 1020.34 1020.68 1021.02 1021.33 1021.59 1021.77 1021.86 1021.85 1021.74 1021.55 1021.29 1020.98 1020.62 1020.21 1019.77 1019.29 1018.76
1019.52 1019.78 1019.93 1019.94 1019.81 1019.53 1019.14 1018.68 1018.20 1017.76 1017.41 1017.17 1017.08 1017.12 1017.28 1017.51 1017.80 1018.08 1018.34 1018.55 1018.73 1018.86 1018.99 1019.14 1019.33 1019.57 1019.86 1020.21 1020.57 1020.94 1021.26 1021.52 1021.69 1021.75 1021.71 1021.58 1021.36 1021.08 1020.75 1020.37 1019.96 1019.50 1019.00 1018.44
1020.52 1020.71 1020.78 1020.73 1020.55 1020.23 1019.81 1019.34 1018.86 1018.42 1018.07 1017.84 1017.74 1017.76 1017.87 1018.05 1018.25 1018.44 1018.60 1018.71 1018.80 1018.86 1018.94 1019.05 1019.23 1019.48 1019.80 1020.17 1020.57 1020.95 1021.29 1021.55 1021.70 1021.75 1021.68 1021.52 1021.28 1020.97 1020.61 1020.21 1019.78 1019.30 1018.77 1018.18
1021.27 1021.37 1021.37 1021.25 1021.02 1020.68 1020.26 1019.80 1019.34 1018.93 1018.61 1018.39 1018.29 1018.28 1018.36 1018.48 1018.61 1018.72 1018.80 1018.84 1018.86 1018.89 1018.94 1019.06 1019.25 1019.52 1019.87 1020.27 1020.69 1021.09 1021.44 1021.69 1021.84 1021.87 1021.78 1021.59 1021.31 1020.97 1020.58 1020.16 1019.69 1019.17 1018.60 1017.97
1021.69 1021.69 1021.61 1021.43 1021.15 1020.80 1020.39 1019.95 1019.53 1019.17 1018.88 1018.69 1018.60 1018.58 1018.63 1018.71 1018.79 1018.86 1018.89 1018.91 1018.92 1018.94 1019.01 1019.15 1019.38 1019.69 1020.08 1020.51 1020.96 1021.37 1021.72 1021.96 1022.09 1022.09 1021.97 1021.75 1021.43 1021.05 1020.62 1020.14 1019.62 1019.06 1018.44 1017.75
1021.74 1021.64 1021.46 1021.21 1020.90 1020.53 1020.14 1019.74 1019.37 1019.05 1018.82 1018.66 1018.59 1018.59 1018.64 1018.71 1018.78 1018.84 1018.88 1018.91 1018.95 1019.03 1019.15 1019.35 1019.64 1020.01 1020.43 1020.89 1021.35 1021.76 1022.09 1022.31 1022.41 1022.37 1022.21 1021.93 1021.57 1021.13 1020.64 1020.09 1019.51 1018.87 1018.19 1017.44
1021.40 1021.20 1020.93 1020.63 1020.28 1019.91 1019.53 1019.17 1018.85 1018.60 1018.41 1018.31 1018.28 1018.31 1018.39 1018.49 1018.59 1018.69 1018.79 1018.89 1019.01 1019.17 1019.38 1019.66 1020.02 1020.44 1020.90 1021.37 1021.82 1022.21 1022.50 1022.68 1022.72 1022.62 1022.40 1022.06 1021.63 1021.11 1020.54 1019.91 1019.24 1018.53 1017.76 1016.95
1020.67 1020.39 1020.06 1019.71 1019.34 1018.97 1018.62 1018.31 1018.05 1017.86 1017.75 1017.71 1017.74 1017.83 1017.97 1018.13 1018.30 1018.49 1018.68 1018.89 1019.13 1019.40 1019.72 1020.09 1020.52 1020.97 1021.45 1021.91 1022.32 1022.65 1022.88 1022.98 1022.94 1022.76 1022.45 1022.03 1021.52 1020.92 1020.25 1019.53 1018.76 1017.95 1017.10 1016.20
1019.61 1019.27 1018.90 1018.53 1018.16 1017.82 1017.51 1017.26 1017.08 1016.97 1016.94 1016.99 1017.10 1017.28 1017.50 1017.76 1018.04 1018.34 1018.66 1019.00 1019.37 1019.76 1020.18 1020.63 1021.10 1021.58 1022.03 1022.44 1022.78 1023.03 1023.15 1023.14 1023.00 1022.72 1022.32 1021.81 1021.20 1020.50 1019.74 1018.92 1018.05 1017.14 1016.19 1015.21
1018.27 1017.91 1017.54 1017.18 1016.86 1016.57 1016.34 1016.18 1016.10 1016.09 1016.16 1016.31 1016.52 1016.80 1017.14 1017.51 1017.92 1018.36 1018.81 1019.28 1019.77 1020.27 1020.77 1021.27 1021.76 1022.20 1022.60 1022.92 1023.15 1023.27 1023.26 1023.13 1022.86 1022.48 1021.97 1021.37 1020.67 1019.88 1019.03 1018.11 1017.15 1016.13 1015.08 1014.01
1016.75 1016.41 1016.08 1015.79 1015.55 1015.37 1015.25 1015.21 1015.25 1015.37 1015.56 1015.83 1016.17 1016.57 1017.02 1017.52 1018.06 1018.62 1019.20 1019.78 1020.37 1020.93 1021.47 1021.98 1022.42 1022.80 1023.09 1023.29 1023.37 1023.35 1023.19 1022.92 1022.53 1022.04 1021.45 1020.76 1019.98 1019.13 1018.20 1017.21 1016.15 1015.05 1013.90 1012.73
Thickness
5662 5653 5648 5655 5659 5658 5656 5651 5647 5654 5666 5660 5655 5656 5664 5676 5682 5681 5675 5666 5656 5648 5641 5638 5637 5639 5645 5651 5657 5660 5663 5665 5665 5663 5659 5656 5654 5654 5653 5651 5649 5647 5645 5642
5645 5641 5656 5663 5661 5650 5642 5635 5636 5645 5657 5649 5645 5647 5659 5667 5668 5668 5661 5650 5642 5634 5629 5626 5625 5626 5629 5632 5635 5640 5643 5647 5648 5648 5645 5641 5639 5639 5638 5638 5637 5635 5633 5630
5641 5653 5655 5650 5645 5639 5634 5628 5630 5631 5638 5638 5629 5632 5645 5660 5658 5650 5642 5633 5626 5620 5614 5612 5611 5610 5611 5614 5615 5618 5620 5624 5628 5632 5631 5628 5624 5622 5621 5620 5620 5620 5619 5617
5636 5644 5640 5633 5630 5629 5622 5634 5631 5624 5612 5611 5623 5605 5635 5646 5638 5627 5619 5612 5605 5601 5598 5595 5594 5593 5593 5593 5596 5599 5600 5602 5605 5609 5610 5610 5608 5605 5605 5605 5605 5605 5604 5603
5630 5628 5622 5620 5626 5626 5623 5621 5618 5613 5603 5597 5606 5597 5620 5635 5620 5603 5597 5592 5586 5581 5580 5578 5576 5574 5573 5574 5576 5578 5580 5581 5583 5585 5586 5586 5586 5586 5587 5589 5589 5589 5589 5588
5617 5622 5620 5621 5624 5619 5616 5608 5604 5600 5591 5581 5603 5597 5610 5617 5616 5590 5583 5576 5570 5565 5561 5559 5556 5555 5555 5556 5557 5558 5558 5558 5559 5561 5562 5561 5561 5562 5564 5566 5567 5569 5571 5571
5609 5607 5609 5610 5604 5598 5599 5592 5581 5578 5567 5576 5604 5596 5604 5592 5595 5585 5571 5560 5553 5548 5543 5540 5538 5536 5536 5537 5538 5537 5536 5534 5534 5535 5535 5536 5536 5537 5538 5539 5541 5544 5546 5548
5592 5594 5595 5594 5598 5594 5593 5589 5567 5554 5558 5567 5579 5578 5596 5579 5571 5564 5554 5544 5538 5532 5526 5523 5520 5519 5517 5518 5518 5516 5514 5512 5511 5510 5509 5510 5511 5511 5513 5514 5515 5518 5520 5524
5583 5583 5584 5589 5590 5586 5579 5572 5570 5546 5537 5532 5558 5582 5579 5563 5552 5544 5537 5528 5521 5515 5511 5506 5502 5500 5497 5496 5495 5494 5492 5489 5488 5487 5487 5486 5486 5486 5487 5488 5490 5492 5494 5498
5572 5563 5575 5572 5571 5567 5563 5559 5539 5526 5518 5520 5545 5562 5571 5559 5538 5530 5522 5514 5506 5500 5494 5489 5484 5480 5477 5474 5472 5471 5469 5466 5465 5465 5464 5464 5463 5463 5463 5464 5465 5467 5469 5472
5557 5545 5551 5556 5554 5553 5546 5539 5535 5527 5518 5510 5512 5537 5567 5550 5532 5518 5506 5494 5485 5479 5474 5469 5465 5462 5458 5455 5453 5450 5448 5444 5442 5441 5441 5441 5440 5440 5440 5440 5442 5444 5446 5449
5539 5528 5524 5539 5551 5547 5537 5534 5527 5512 5507 5510 5505 5517 5549 5525 5510 5497 5482 5473 5466 5462 5457 5452 5448 5444 5439 5436 5433 5431 5428 5425 5421 5419 5417 5416 5415 5415 5415 5416 5418 5420 5422 5425
5519 5503 5491 5503 5525 5526 5521 5520 5512 5500 5488 5487 5485 5496 5511 5492 5480 5473 5466 5458 5451 5445 5440 5434 5430 5425 5420 5416 5412 5409 5406 5403 5399 5396 5393 5391 5390 5390 5391 5391 5393 5395 5398 5401
5501 5488 5481 5479 5498 5501 5493 5493 5493 5480 5464 5464 5472 5482 5492 5486 5478 5468 5456 5447 5438 5429 5422 5416 5409 5404 5400 5395 5391 5385 5380 5377 5374 5370 5367 5365 5364 5364 5365 5366 5367 5369 5372 5375
5482 5464 5466 5470 5478 5474 5467 5468 5473 5465 5460 5450 5455 5457 5466 5461 5454 5452 5445 5430 5420 5410 5402 5396 5389 5383 5377 5372 5367 5361 5354 5349 5345 5341 5337 5335 5336 5336 5337 5339 5341 5344 5346 5349
5461 5443 5441 5432 5444 5440 5435 5448 5449 5443 5442 5441 5439 5442 5438 5419 5421 5418 5414 5407 5399 5390 5381 5373 5367 5360 5353 5347 5341 5334 5328 5322 5315 5311 5308 5306 5305 5306 5308 5310 5313 5316 5319 5322
5431 5415 5400 5394 5418 5409 5401 5432 5434 5431 5438 5435 5424 5408 5389 5390 5390 5386 5382 5378 5373 5367 5359 5351 5343 5336 5328 5321 5314 5307 5302 5295 5289 5285 5282 5280 5279 5280 5281 5281 5283 5285 5287 5291
5410 5396 5376 5369 5372 5350 5410 5441 5436 5423 5417 5409 5385 5365 5366 5368 5366 5362 5356 5350 5348 5345 5339 5331 5323 5317 5308 5299 5292 5286 5280 5272 5267 5264 5261 5259 5257 5256 5255 5254 5255 5255 5256 5259
5402 5385 5364 5353 5343 5357 5401 5422 5408 5392 5379 5384 5365 5351 5349 5345 5340 5337 5336 5332 5329 5325 5320 5314 5307 5299 5290 5282 5274 5267 5259 5253 5248 5245 5242 5239 5233 5230 5228 5227 5228 5227 5227 5231
5393 5381 5360 5346 5333 5326 5376 5374 5373 5361 5338 5349 5337 5327 5324 5321 5305 5310 5319 5314 5311 5308 5303 5298 5290 5282 5273 5264 5255 5248 5241 5235 5230 5226 5221 5215 5208 5203 5200 5200 5199 5199 5197 5201
5357 5345 5336 5330 5316 5318 5355 5347 5345 5316 5315 5321 5316 5310 5307 5301 5295 5300 5304 5302 5298 5295 5289 5282 5275 5264 5253 5243 5236 5229 5223 5217 5211 5205 5198 5191 5184 5178 5175 5174 5172 5169 5169 5172
5343 5331 5317 5305 5291 5298 5329 5322 5312 5307 5308 5303 5301 5298 5294 5293 5294 5293 5292 5290 5286 5279 5271 5262 5253 5243 5232 5224 5216 5211 5205 5199 5191 5184 5177 5170 5163 5156 5153 5150 5150 5148 5146 5148
5337 5337 5318 5307 5302 5322 5312 5305 5305 5305 5296 5294 5290 5289 5286 5284 5283 5283 5280 5276 5267 5258 5247 5238 5229 5221 5212 5203 5196 5189 5185 5178 5172 5165 5158 5152 5147 5141 5136 5133 5134 5134 5132 5132
5327 5334 5314 5298 5303 5310 5308 5303 5299 5294 5289 5289 5286 5282 5278 5273 5272 5270 5266 5256 5246 5235 5226 5217 5208 5200 5193 5185 5178 5170 5165 5159 5152 5147 5143 5139 5135 5131 5127 5123 5121 5121 5119 5117
5313 5314 5297 5287 5293 5294 5298 5298 5293 5287 5283 5280 5277 5272 5268 5265 5262 5258 5248 5236 5226 5218 5206 5197 5188 5182 5177 5171 5164 5155 5149 5143 5138 5134 5131 5128 5125 5121 5119 5117 5112 5111 5110 5103
5315 5301 5286 5281 5290 5284 5285 5290 5286 5278 5274 5270 5265 5261 5257 5250 5245 5237 5227 5217 5207 5196 5186 5177 5170 5165 5160 5155 5149 5142 5135 5129 5125 5124 5122 5119 5116 5113 5111 5112 5113 5108 5106 5104